Location: Penzberg
(47.7615°N, 11.3159°E)
Time: 05:51:47
(UTC+02:00)

ELECTRON R/B - Visible Passes

Search period start: 22 May 2018 00:00
Search period end: 01 June 2018 00:00
Orbit: 285 x 480 km, 82.9° (Epoch: 21 May)

Date Brightness Start Highest point End Pass type
(mag) Time Alt. Az. Time Alt. Az. Time Alt. Az.
22 May 5.2 22:06:51 10° NNW 22:09:13 48° W 22:11:33 10° S visible
23 May 7.7 22:45:12 10° W 22:45:21 10° W 22:45:31 10° W visible
24 May 4.8 21:46:38 10° NNW 21:49:04 59° W 21:51:28 10° S visible
25 May 7.5 22:24:06 10° WNW 22:25:05 12° W 22:26:05 10° WSW visible
27 May 7.4 22:03:08 10° NW 22:04:32 14° W 22:05:56 10° SW visible
29 May 7.4 21:41:59 10° NW 21:43:41 17° W 21:45:25 10° SW visible
